Vanaf de start van Weerstation Assen op 01-04-2009 wordt iedere 5 minuten data gestuurd naar de Weather Underground. In het overzicht hieronder is dit terug te vinden op datum en per 5 minuten.
Station Historical Data
 
Dagelijks Overzicht voor December 11, 2017 Eenheden:  Beide    Engels   Metrisch
« Vorige Dag
Volgende Dag »
Dagelijks Wekelijks Maandelijks Jaarlijks Custom
  Huidig: Hoog: Laag: Gemiddeld:
Temperatuur: 29.5 °F /  -1.4 °C 32 °F /  0.0 °C 29.5 °F /  -1.4 °C 31.3 °F /  -0.4 °C
Dauwpunt: 27.7 °F /  -2.4 °C 30.6 °F /  -0.8 °C 27.7 °F /  -2.4 °C 29.8 °F /  -1.2 °C
Vochtigheid: 93 % 94 % 93 % 94 %
Windkracht: 0 mph /  0.0 km/h 8.1 mph /  13.0 km/h - 1.2 mph /  1.9 km/h
Wind vlaag: 0 mph /  0.0 km/h 8.1 mph /  13.0 km/h - -
Wind:Calm - - WSW
Luchtdruk: 29.1 in /  985.0 hPa 29.1 in /  986.0 hPa 28.9 in /  978.2 hPa -
Neerslag: 0.01 in /  0.3 mm      
Historical Graphs
 
 
Tabel Data for December 11, 2017
Tijd Temperatuur Dauwpunt Luchtdruk Wind Windkracht Windvlaag Vochtigheid Regenval snelheid (Per uur) Zon Condities
00:04 31.3 °F /  -0.4 °C 29.8 °F /  -1.2 °C 28.9 in /  978.2 hPa WNW 8.1 mph /  13.0 km/h 8.1 mph /  13.0 km/h 94 % 0 in /  0.0 mm 0.0 W/m2 RA
00:09 31.3 °F /  -0.4 °C 29.8 °F /  -1.2 °C 28.9 in /  978.2 hPa NNE 4.6 mph /  7.4 km/h 4.6 mph /  7.4 km/h 94 % 0 in /  0.0 mm 0.0 W/m2 OVC
00:14 31.3 °F /  -0.4 °C 29.8 °F /  -1.2 °C 28.9 in /  978.6 hPa ENE 6.9 mph /  11.1 km/h 6.9 mph /  11.1 km/h 94 % 0 in /  0.0 mm 0.0 W/m2 OVC
00:20 31.3 °F /  -0.4 °C 29.8 °F /  -1.2 °C 28.9 in /  978.6 hPa NNE 4.6 mph /  7.4 km/h 4.6 mph /  7.4 km/h 94 % 0 in /  0.0 mm 0.0 W/m2 OVC
00:25 31.3 °F /  -0.4 °C 29.7 °F /  -1.3 °C 28.9 in /  978.6 hPa NNW 3.5 mph /  5.6 km/h 3.5 mph /  5.6 km/h 94 % 0 in /  0.0 mm 0.0 W/m2 OVC
00:30 31.3 °F /  -0.4 °C 29.7 °F /  -1.3 °C 28.9 in /  978.9 hPa NW 2 mph /  3.2 km/h 2 mph /  3.2 km/h 94 % 0 in /  0.0 mm 0.0 W/m2 OVC
00:35 31.3 °F /  -0.4 °C 29.7 °F /  -1.3 °C 28.9 in /  979.2 hPa North 6.9 mph /  11.1 km/h 6.9 mph /  11.1 km/h 94 % 0 in /  0.0 mm 0.0 W/m2 OVC
00:40 31.3 °F /  -0.4 °C 29.7 °F /  -1.3 °C 28.9 in /  979.2 hPa NNE 6.9 mph /  11.1 km/h 6.9 mph /  11.1 km/h 94 % 0 in /  0.0 mm 0.0 W/m2 OVC
00:50 31.1 °F /  -0.5 °C 29.7 °F /  -1.3 °C 28.9 in /  979.6 hPa NNW 1.2 mph /  1.9 km/h   94 % 0.01 in /  0.3 mm 0.0 W/m2 RA
00:55 31.1 °F /  -0.5 °C 29.7 °F /  -1.3 °C 28.9 in /  979.6 hPa NNW 2.3 mph /  3.7 km/h 2.3 mph /  3.7 km/h 94 % 0.01 in /  0.3 mm 0.0 W/m2 OVC
01:00 30.9 °F /  -0.6 °C 29.5 °F /  -1.4 °C 28.9 in /  979.9 hPa NW 3.5 mph /  5.6 km/h 3.5 mph /  5.6 km/h 94 % 0.01 in /  0.3 mm 0.0 W/m2 OVC
01:05 30.9 °F /  -0.6 °C 29.5 °F /  -1.4 °C 28.9 in /  979.9 hPa Calm     94 % 0.01 in /  0.3 mm 0.0 W/m2 OVC
01:10 30.9 °F /  -0.6 °C 29.5 °F /  -1.4 °C 28.9 in /  979.9 hPa North 3.5 mph /  5.6 km/h 3.5 mph /  5.6 km/h 94 % 0.01 in /  0.3 mm 0.0 W/m2 OVC
01:15 30.9 °F /  -0.6 °C 29.5 °F /  -1.4 °C 28.9 in /  980.2 hPa NW 3.5 mph /  5.6 km/h 3.5 mph /  5.6 km/h 94 % 0.01 in /  0.3 mm 0.0 W/m2 OVC
01:20 30.9 °F /  -0.6 °C 29.5 °F /  -1.4 °C 29 in /  980.6 hPa NW 2.3 mph /  3.7 km/h 2.3 mph /  3.7 km/h 94 % 0.01 in /  0.3 mm 0.0 W/m2 OVC
01:25 30.9 °F /  -0.6 °C 29.5 °F /  -1.4 °C 29 in /  980.6 hPa Calm     94 % 0.01 in /  0.3 mm 0.0 W/m2 OVC
01:30 30.9 °F /  -0.6 °C 29.5 °F /  -1.4 °C 29 in /  980.9 hPa NNW 3.5 mph /  5.6 km/h   94 % 0.01 in /  0.3 mm 0.0 W/m2 OVC
01:35 30.9 °F /  -0.6 °C 29.5 °F /  -1.4 °C 29 in /  981.3 hPa NW 1.2 mph /  1.9 km/h 1.2 mph /  1.9 km/h 94 % 0.01 in /  0.3 mm 0.0 W/m2 OVC
01:40 30.9 °F /  -0.6 °C 29.5 °F /  -1.4 °C 29 in /  981.6 hPa Calm     94 % 0.01 in /  0.3 mm 0.0 W/m2 OVC
01:45 30.9 °F /  -0.6 °C 29.5 °F /  -1.4 °C 29 in /  981.6 hPa Calm     94 % 0 in /  0.0 mm 0.0 W/m2 OVC
01:55 31.1 °F /  -0.5 °C 29.7 °F /  -1.3 °C 29 in /  982.3 hPa Calm     94 % 0 in /  0.0 mm 0.0 W/m2 OVC
02:00 31.3 °F /  -0.4 °C 29.7 °F /  -1.3 °C 29 in /  982.3 hPa Calm     94 % 0 in /  0.0 mm 0.0 W/m2 OVC
02:05 31.3 °F /  -0.4 °C 29.7 °F /  -1.3 °C 29 in /  982.6 hPa Calm     94 % 0 in /  0.0 mm 0.0 W/m2 OVC
02:10 31.3 °F /  -0.4 °C 29.8 °F /  -1.2 °C 29 in /  982.6 hPa Calm     94 % 0 in /  0.0 mm 0.0 W/m2 OVC
02:15 31.5 °F /  -0.3 °C 29.8 °F /  -1.2 °C 29 in /  982.6 hPa Calm     94 % 0 in /  0.0 mm 0.0 W/m2 OVC
02:20 31.5 °F /  -0.3 °C 29.8 °F /  -1.2 °C 29 in /  982.6 hPa Calm     94 % 0 in /  0.0 mm 0.0 W/m2 OVC
02:25 31.5 °F /  -0.3 °C 29.8 °F /  -1.2 °C 29 in /  983.0 hPa Calm     94 % 0 in /  0.0 mm 0.0 W/m2 OVC
02:30 31.5 °F /  -0.3 °C 30 °F /  -1.1 °C 29 in /  983.0 hPa Calm     94 % 0 in /  0.0 mm 0.0 W/m2 OVC
02:35 31.6 °F /  -0.2 °C 30 °F /  -1.1 °C 29 in /  983.0 hPa Calm     94 % 0 in /  0.0 mm 0.0 W/m2 OVC
02:40 31.6 °F /  -0.2 °C 30 °F /  -1.1 °C 29 in /  983.0 hPa Calm     94 % 0 in /  0.0 mm 0.0 W/m2 OVC
02:50 31.6 °F /  -0.2 °C 30 °F /  -1.1 °C 29 in /  983.3 hPa Calm     94 % 0 in /  0.0 mm 0.0 W/m2 OVC
02:55 31.6 °F /  -0.2 °C 30 °F /  -1.1 °C 29 in /  983.6 hPa Calm     94 % 0 in /  0.0 mm 0.0 W/m2 OVC
03:00 31.6 °F /  -0.2 °C 30.2 °F /  -1.0 °C 29 in /  983.6 hPa Calm     94 % 0 in /  0.0 mm 0.0 W/m2 OVC
03:05 31.6 °F /  -0.2 °C 30.2 °F /  -1.0 °C 29 in /  983.6 hPa Calm     94 % 0 in /  0.0 mm 0.0 W/m2 OVC
03:10 31.6 °F /  -0.2 °C 30.2 °F /  -1.0 °C 29 in /  983.6 hPa Calm     94 % 0 in /  0.0 mm 0.0 W/m2 OVC
03:15 31.6 °F /  -0.2 °C 30.2 °F /  -1.0 °C 29 in /  983.6 hPa Calm     94 % 0 in /  0.0 mm 0.0 W/m2 OVC
03:20 31.6 °F /  -0.2 °C 30.2 °F /  -1.0 °C 29 in /  983.3 hPa Calm     94 % 0 in /  0.0 mm 0.0 W/m2 OVC
03:25 31.8 °F /  -0.1 °C 30.4 °F /  -0.9 °C 29 in /  983.6 hPa Calm     94 % 0 in /  0.0 mm 0.0 W/m2 OVC
03:35 31.8 °F /  -0.1 °C 30.4 °F /  -0.9 °C 29 in /  983.3 hPa Calm     94 % 0 in /  0.0 mm 0.0 W/m2 OVC
03:40 31.8 °F /  -0.1 °C 30.4 °F /  -0.9 °C 29 in /  983.6 hPa Calm     94 % 0 in /  0.0 mm 0.0 W/m2 OVC
03:55 31.8 °F /  -0.1 °C 30.4 °F /  -0.9 °C 29.1 in /  984.0 hPa Calm     94 % 0 in /  0.0 mm 0.0 W/m2 OVC
04:00 31.8 °F /  -0.1 °C 30.4 °F /  -0.9 °C 29.1 in /  984.3 hPa WSW 3 mph /  4.8 km/h 3 mph /  4.8 km/h 94 % 0 in /  0.0 mm 0.0 W/m2 OVC
04:05 31.8 °F /  -0.1 °C 30.4 °F /  -0.9 °C 29.1 in /  984.3 hPa Calm     94 % 0 in /  0.0 mm 0.0 W/m2 OVC
04:10 31.8 °F /  -0.1 °C 30.4 °F /  -0.9 °C 29.1 in /  984.6 hPa Calm     94 % 0 in /  0.0 mm 0.0 W/m2 OVC
04:15 31.8 °F /  -0.1 °C 30.4 °F /  -0.9 °C 29.1 in /  985.0 hPa Calm     94 % 0 in /  0.0 mm 0.0 W/m2 OVC
04:20 31.8 °F /  -0.1 °C 30.4 °F /  -0.9 °C 29.1 in /  985.3 hPa SW 3.5 mph /  5.6 km/h 3.5 mph /  5.6 km/h 94 % 0 in /  0.0 mm 0.0 W/m2 OVC
04:25 31.8 °F /  -0.1 °C 30.4 °F /  -0.9 °C 29.1 in /  985.3 hPa Calm     94 % 0 in /  0.0 mm 0.0 W/m2 OVC
04:30 31.8 °F /  -0.1 °C 30.4 °F /  -0.9 °C 29.1 in /  985.3 hPa West 3.5 mph /  5.6 km/h 3.5 mph /  5.6 km/h 94 % 0 in /  0.0 mm 0.0 W/m2 OVC
04:35 31.8 °F /  -0.1 °C 30.4 °F /  -0.9 °C 29.1 in /  985.7 hPa West 3.5 mph /  5.6 km/h 3.5 mph /  5.6 km/h 94 % 0 in /  0.0 mm 0.0 W/m2 OVC
04:40 31.8 °F /  -0.1 °C 30.4 °F /  -0.9 °C 29.1 in /  985.7 hPa Calm     94 % 0 in /  0.0 mm 0.0 W/m2 OVC
04:45 32 °F /  0.0 °C 30.6 °F /  -0.8 °C 29.1 in /  985.7 hPa Calm     94 % 0 in /  0.0 mm 0.0 W/m2 OVC
04:50 31.8 °F /  -0.1 °C 30.4 °F /  -0.9 °C 29.1 in /  986.0 hPa Calm     94 % 0 in /  0.0 mm 0.0 W/m2 OVC
04:55 31.8 °F /  -0.1 °C 30.4 °F /  -0.9 °C 29.1 in /  986.0 hPa Calm     94 % 0 in /  0.0 mm 0.0 W/m2 OVC
05:00 31.8 °F /  -0.1 °C 30.4 °F /  -0.9 °C 29.1 in /  985.7 hPa Calm     94 % 0 in /  0.0 mm 0.0 W/m2 OVC
05:05 31.8 °F /  -0.1 °C 30.4 °F /  -0.9 °C 29.1 in /  985.7 hPa Calm     94 % 0 in /  0.0 mm 0.0 W/m2 OVC
05:15 31.6 °F /  -0.2 °C 30 °F /  -1.1 °C 29.1 in /  985.7 hPa Calm     94 % 0 in /  0.0 mm 0.0 W/m2 OVC
05:20 31.5 °F /  -0.3 °C 30 °F /  -1.1 °C 29.1 in /  985.7 hPa Calm     94 % 0 in /  0.0 mm 0.0 W/m2 OVC
05:25 31.3 °F /  -0.4 °C 29.8 °F /  -1.2 °C 29.1 in /  985.7 hPa Calm     94 % 0 in /  0.0 mm 0.0 W/m2 OVC
05:30 31.3 °F /  -0.4 °C 29.7 °F /  -1.3 °C 29.1 in /  985.3 hPa Calm     94 % 0 in /  0.0 mm 0.0 W/m2 OVC
05:35 30.9 °F /  -0.6 °C 29.5 °F /  -1.4 °C 29.1 in /  985.3 hPa Calm     94 % 0 in /  0.0 mm 0.0 W/m2 OVC
05:40 30.7 °F /  -0.7 °C 28.9 °F /  -1.7 °C 29.1 in /  985.3 hPa Calm     93 % 0 in /  0.0 mm 0.0 W/m2 OVC
05:42 30.6 °F /  -0.8 °C 28.8 °F /  -1.8 °C 29.1 in /  985.3 hPa Calm     93 % 0 in /  0.0 mm 0.0 W/m2 OVC
05:52 30.4 °F /  -0.9 °C 28.9 °F /  -1.7 °C 29.1 in /  985.0 hPa Calm     94 % 0 in /  0.0 mm 0.0 W/m2 OVC
05:57 30 °F /  -1.1 °C 28.2 °F /  -2.1 °C 29.1 in /  985.0 hPa Calm     93 % 0 in /  0.0 mm 0.0 W/m2 OVC
06:07 29.8 °F /  -1.2 °C 28 °F /  -2.2 °C 29.1 in /  985.3 hPa Calm     93 % 0 in /  0.0 mm 0.0 W/m2 FEW
06:22 29.5 °F /  -1.4 °C 27.7 °F /  -2.4 °C 29.1 in /  985.0 hPa Calm     93 % 0 in /  0.0 mm 0.0 W/m2 FEW
Weerstation Assen
Compliments of Weather Underground - 768 kb

© 2009 - 2017 Weerstation Assen
alle rechten voorbehouden
www.weerstation-assen.nl

Baseer nooit belangrijke beslissingen op deze of andere weergegevens verkregen via Internet.
WeBBuddy Website Monitor
Weerstation Assen op Facebook
Weerstation Assen op Twitter